Regional Weather Roundup
Issued by NWS

Home | Current Version | Previous Version | Text Only | Print | Product List | Glossary Off
Versions: 1 2 3 4 5 6 7 8 9 10 11 12 13 14 15 16 17 18 19 20 21 22 23 24 25 26 27 28 29 30 31 32 33 34 35 36 37 38 39 40 41 42 43 44 45 46 47 48 49 50

000
ASUS43 KFSD 150610
RWRSD

WEATHER ROUNDUP FOR SOUTH DAKOTA
NATIONAL WEATHER SERVICE SIOUX FALLS SD
100 AM CDT TUE APR 15 2014

NOTE: "FAIR" INDICATES FEW OR NO CLOUDS BELOW 12,000 FEET WITH NO
SIGNIFICANT WEATHER AND/OR OBSTRUCTIONS TO VISIBILITY.


SDZ001>005-009-010-012>017-150700-
NORTHWEST AND NORTH CENTRAL SOUTH DAKOTA

CITY           SKY/WX    TMP DP  RH WIND       PRES   REMARKS
BUFFALO          N/A     26  13  57 SE14      29.95F WCI  14
FAITH            N/A     20  11  68 SE13      30.08F WCI   7
MOBRIDGE       CLEAR     21  10  62 E12       30.11F WCI   9
$$

SDZ012>016-024>037-041>051-057-063-072>074-150700-
SOUTHWEST AND SOUTH CENTRAL SOUTH DAKOTA

CITY           SKY/WX    TMP DP  RH WIND       PRES   REMARKS
RAPID CTY ARPT CLEAR     21  11  65 SE5       30.03F WCI  15
PIERRE         CLEAR     22  11  62 E5        30.14F WCI  16
CUSTER         CLEAR     23  11  60 SW5       29.97F WCI  17
ELLSWORTH AFB  CLEAR     26  11  53 S9        30.03F WCI  16
PHILIP         CLEAR     21  10  62 E6        30.11F WCI  13
PINE RIDGE     CLEAR     23  16  74 CALM      30.05F
WINNER         FAIR      25   9  50 S6        30.15S WCI  18
$$

SDZ004>011-016>023-039-040-150700-
NORTHEAST SOUTH DAKOTA

CITY           SKY/WX    TMP DP  RH WIND       PRES   REMARKS
ABERDEEN       CLEAR     15   9  76 CALM      30.19S
WATERTOWN      FAIR      17  10  74 CALM      30.15S
SISSETON         N/A     18  14  84 N3        30.19S
$$

SDZ017-020-022-023-036>040-048>070-150700-
SOUTHEAST SOUTH DAKOTA

CITY           SKY/WX    TMP DP  RH WIND       PRES   REMARKS
SIOUX FALLS    FAIR      21  17  84 CALM      30.18R
HURON          CLEAR     16  12  84 CALM      30.19S
CHAMBERLAIN      N/A     22  10  60 E5        30.16F WCI  16
MITCHELL         N/A     22  19  89 MISG      30.20S
YANKTON        FAIR      23  14  68 NW5       30.19S WCI  17
$$

ABBREVIATIONS USED IN REMARKS
   TC - TEMPERATURE IN CELSIUS
  WCI - WIND CHILL INDEX
   HX - HEAT INDEX
  VSB - VISIBILITY




USA.gov is the U.S. government's official web portal to all federal, state and local government web resources and services.